ITAMSAT (IO-26) (22826 NORAD) Tracking and Keplerian Element Data

This shows tracking and keplerian element data for the satellite.

Feedback or suggestion? Click here.




ElementValue
Catalog22826
NameITAMSAT (IO-26)
Epoch Orbit52074
Epoch Day324.65124943
Epoch Year2022
RAAN358.7435
Inclination98.8656
Eccentricity0.0008082
Argument of Perigee306.8277
Mean Anonmoly53.2163
Mean Motion14.30561924
Decay Rate9.5E-07
L11 22826U 93061D 22324.65124943 .00000095 00000+0 54223-4 0 9999
L22 22826 98.8656 358.7435 0008082 306.8277 53.2163 14.30561924520743



Live tracking and technical data element details for ITAMSAT (IO-26) (NORAD 22826). ITAMSAT (IO-26) can be tracked NOW for your location showing map with azimuth and elevation plus other details from your city location.







IsCatalogInMostPopularTable: catalog: 22826, numindb: 407
Update: records affected: 1



GetName: 22826 ITAMSAT (IO-26)

Hit Count: updated at: Mon, 28 Nov 2022 04:07:36 GMT